Hourly Weather Roundup
Issued by NWS Central Illinois

Home | Current Version | Previous Version | Text Only | Print | Product List | Glossary On
Versions: 1 2 3 4 5 6 7 8 9 10 11 12 13 14 15 16 17 18 19 20 21 22 23 24 25 26 27 28 29 30 31 32 33 34 35 36 37 38 39 40 41 42 43 44 45 46 47 48 49 50
846
NZUS43 KILX 241410
HWRILX

Area Weather Roundup
National Weather Service Lincoln IL
900 AM CDT WED MAY 24 2017

NOTE:  "FAIR" indicates few or no clouds below 12,000 feet, with
       no sigificant weather and/or obstructions to visibility.


CITY           SKY/WX    TMP DP  RH WIND       PRES   REMARKS
Bloomington    CLOUDY    53  52  96 NW13      29.59S FOG
Champaign      CLOUDY    57  54  89 NW10      29.55F FOG
Danville       CLOUDY    58  56  94 N5        29.52S FOG
Decatur        CLOUDY    55  52  89 N13       29.57S
Effingham      CLOUDY    57  55  94 W10       29.58S
Flora          CLOUDY    59  55  87 NW7       29.55F
Galesburg      CLOUDY    55  52  89 N8        29.60F
Jacksonville   SUNNY     56  51  82 NW9       29.59S
Lacon          PTSUNNY   58  54  85 N7        29.58F
Lawrenceville  LGT RAIN  59  32  36 N9        29.53F
Litchfield     MOSUNNY   56  51  85 N8        29.58S
$$


CITY           SKY/WX    TMP DP  RH WIND       PRES   REMARKS
Lincoln        CLOUDY    58  55  90 N9        29.58F
Macomb         MOSUNNY   56  53  91 N9        29.62F
Mattoon        CLOUDY    57  56  96 NW12      29.54S
Mt Carmel AP   LGT RAIN  58  56  92 N8        29.53F
Olney-Noble AP LGT RAIN  58  58 100 NW8       29.55S
Paris AP       DRIZZLE   57  56  96 N3        29.54F
Peoria         PTSUNNY   58  53  84 N7        29.58F
Pontiac        CLOUDY    56  55  98 N9        29.58F FOG
Rantoul        CLOUDY    58  57  95 N7        29.55S FOG
Robinson       RAIN      57  56  96 N6        29.54F
Springfield    PTSUNNY   59  55  87 N10       29.58F
Taylorville    CLOUDY    55  53  94 N10       29.57F
$$

...REGIONAL REPORTS...


CITY           SKY/WX    TMP DP  RH WIND       PRES   REMARKS
Chicago O`Hare CLOUDY    57  52  83 N14       29.58S
Kankakee       CLOUDY    57  55  94 CALM      29.56F
Moline         CLOUDY    57  51  80 VRB5      29.61F
Mount Sterling MOSUNNY   55  50  83 NW8       29.61S
Mount Vernon     N/A     57  54  89 CALM      29.56S
Pittsfield     PTSUNNY   56  51  82 NW7       29.62S
Quincy         CLOUDY    53  50  89 NW9       29.61F
Rockford       CLOUDY    54  51  90 N9        29.64F FOG
$$


CITY           SKY/WX    TMP DP  RH WIND       PRES   REMARKS
Burlington     CLOUDY    54  53  97 N8        29.62S FOG
Cedar Rapids   CLOUDY    53  52  96 NE14      29.64S
Des Moines     CLOUDY    55  50  83 N10       29.68S
Kirksville     CLOUDY    53  50  89 N8        29.66S
Ottumwa        CLOUDY    54  52  93 N7        29.65S
St Louis       MOSUNNY   61  51  70 NW10      29.60S
$$


CITY           SKY/WX    TMP DP  RH WIND       PRES   REMARKS
Terre Haute    LGT RAIN  59  55  87 N5        29.53S
Evansville     LGT RAIN  60  57  89 N7        29.52F FOG
Indianapolis   CLOUDY    60  57  89 W7        29.52S FOG
Lafayette      CLOUDY    59  56  89 N6        29.53S
Madison        CLOUDY    51  50  96 N9        29.65S FOG
Milwaukee      LGT RAIN  49  48  97 N16       29.64F VSB 3/4
$$






USA.gov is the U.S. government's official web portal to all federal, state and local government web resources and services.